Weather in Yulara

Australia     25°14′29″S   130°59′16″E
temp.,
°C
wind,
m/s
gust,
m/s
humid.,
%
clouds,
%
prec.,
mm/h
press.,
hPa
HPBL,
m
20 january, wed
wed2000:30+24ese45200 0.0 101441
03:30+21ese45240 0.0 101356
06:30+20ese45260 0.0 101568
09:30+31e810151 0.0 1015980
12:30+35e53110 0.0 10133001
15:30+37ese3290 0.0 10093892
18:30+36ese3290 0.0 10093876
21:30+29e34120 0.0 101124
21 january, thu
thu2100:30+26ese56140 0.0 101194
03:30+24e45160 0.0 101164
06:30+23e45190 0.0 101264
09:30+33ene810120 0.0 1012844
12:30+38ne5490 0.0 10093314
15:30+39ene2280 0.0 10064852
18:30+38ene438100 0.0 10053404
21:30+31ene3412100 0.0 100725
22 january, fri
fri2200:30+28ene2315100 0.0 100724
03:30+26nne2318100 0.0 100724
06:30+24e232792 0.0 100926
09:30+34ene341696 0.0 1010623
12:30+39nne541365 0.0 10073668
15:30+38ne341282 0.0 10044122
18:30+38nnw2512100 0.0 10043949
21:30+33e4513100 0.0 100653
23 january, sat
sat2300:30+29wsw61135100 0.0 1007189
03:30+28wsw5737100 0.0 1007187
06:30+26w7125480 0.0 1008368
09:30+30sw8103990 0.0 10091056
12:30+34ssw6825100 0.0 10083334
15:30+33n4325100 0.0 10082794
18:30+24nw4464100 0.3 1010314
21:30+22ne3477100 1.4 1012471
24 january, sun
sun2400:30+21ene4685100 1.6 1011455
03:30+21ene5886100 2.6 1008352
06:30+22ne5786100 0.5 1009453
09:30+24nne5774100 1.6 1010659
12:30+23nnw91377100 2.2 1009821
15:30+22nnw81382100 6.0 1007760
18:30+21ene3493100 10.4 1007232
21:30+22ene5891100 13.3 1007433